Location: Devore Heights
(34.2372°N, 117.4156°W)
Time: 22:23:58
(UTC+00:00)

Vanguard 3 - All Passes

Search period start: 11 September 2024 00:00
Search period end: 21 September 2024 00:00
Orbit: 507 x 3226 km, 33.3° (Epoch: 10 September)

Date Brightness Start Highest point End Pass type
(mag) Time Alt. Az. Time Alt. Az. Time Alt. Az.
11 Sep - 12:57:39 10° SSW 13:13:28 35° SE 13:28:56 10° E visible
11 Sep - 15:09:14 10° SW 15:28:44 65° SSE 15:44:05 10° E daylight
11 Sep - 17:25:28 10° W 17:44:36 86° S 17:56:38 10° E daylight
11 Sep - 19:43:32 10° W 19:59:11 77° SSW 20:07:51 10° ESE daylight
11 Sep - 22:01:19 10° W 22:10:56 33° SW 22:16:52 10° SSE daylight
12 Sep - 11:40:47 10° S 11:52:29 21° SE 12:04:54 10° E visible
12 Sep - 13:48:42 10° SW 14:06:46 51° SSE 14:23:25 10° E daylight
12 Sep - 16:02:46 10° WSW 16:22:43 79° SSE 16:37:10 10° E daylight
12 Sep - 18:20:13 10° W 18:38:26 86° S 18:49:14 10° E daylight
12 Sep - 20:38:14 10° W 20:51:57 57° SSW 20:59:41 10° SE daylight
12 Sep - 22:57:26 10° W 23:02:17 15° SW 23:06:04 10° SSW daylight
13 Sep - 12:29:45 10° SSW 12:45:13 36° SE 13:01:27 10° E visible
13 Sep - 14:41:08 10° SW 15:00:29 68° SSE 15:17:00 10° E daylight
13 Sep - 16:57:03 10° W 17:16:48 87° S 17:30:02 10° E daylight
13 Sep - 19:15:00 10° W 19:31:54 76° SSW 19:41:33 10° ESE daylight
13 Sep - 21:33:07 10° W 21:43:58 34° SW 21:50:39 10° SSE daylight
14 Sep - 11:12:56 10° S 11:24:23 22° SE 11:37:11 10° E visible
14 Sep - 13:20:50 10° SW 13:38:24 53° SSE 13:55:58 10° ENE daylight
14 Sep - 15:34:33 10° WSW 15:54:33 81° SSE 16:10:13 10° E daylight
14 Sep - 17:51:41 10° W 18:10:47 86° S 18:22:44 10° E daylight
14 Sep - 20:09:44 10° WNW 20:24:44 57° SSW 20:33:22 10° SE daylight
14 Sep - 22:29:23 10° W 22:35:19 16° SW 22:39:49 10° SSW daylight
15 Sep - 12:02:03 10° SSW 12:16:55 38° SE 12:33:40 10° E visible
15 Sep - 14:13:11 10° SW 14:32:05 70° SSE 14:49:40 10° E daylight
15 Sep - 16:28:42 10° W 16:48:47 87° S 17:03:13 10° E daylight
15 Sep - 18:46:24 10° W 19:04:23 75° SSW 19:15:06 10° ESE daylight
15 Sep - 21:04:44 10° W 21:16:48 35° SW 21:24:18 10° SSE daylight
16 Sep - 10:45:18 10° S 10:56:16 22° SE 11:09:11 10° E visible
16 Sep - 12:53:07 10° SW 13:09:57 55° SSE 13:28:15 10° ENE visible
16 Sep - 15:06:29 10° WSW 15:26:13 82° SSE 15:43:02 10° E daylight
16 Sep - 17:23:11 10° W 17:42:54 85° S 17:56:02 10° ESE daylight
16 Sep - 19:41:07 10° WNW 19:57:18 57° SSW 20:06:55 10° SE daylight
16 Sep - 22:01:08 10° W 22:08:09 17° SW 22:13:26 10° SSW daylight
17 Sep - 11:34:30 10° SSW 11:48:35 39° SE 12:05:37 10° E visible
17 Sep - 13:45:23 10° WSW 14:03:35 71° SSE 14:22:06 10° E daylight
17 Sep - 16:00:26 10° W 16:20:33 87° S 16:36:12 10° E daylight
17 Sep - 18:17:46 10° W 18:36:36 75° SSW 18:48:27 10° ESE daylight
17 Sep - 20:36:10 10° W 20:49:25 36° SW 20:57:47 10° SSE daylight
18 Sep - 10:17:50 10° S 10:28:11 23° SE 10:40:55 10° E visible
18 Sep - 12:25:33 10° SW 12:41:28 56° SSE 13:00:16 10° ENE visible
18 Sep - 14:38:33 10° WSW 14:57:44 83° SSE 15:15:37 10° E daylight
18 Sep - 16:54:44 10° W 17:14:48 85° S 17:29:08 10° ESE daylight
18 Sep - 19:12:25 10° WNW 19:29:37 56° SSW 19:40:17 10° SE daylight
18 Sep - 21:32:42 10° W 21:40:48 18° SW 21:46:52 10° SSW daylight
19 Sep - 11:07:07 10° SSW 11:20:16 39° SE 11:37:18 10° E visible
19 Sep - 13:17:44 10° WSW 13:35:02 73° SSE 13:54:16 10° E daylight
19 Sep - 15:32:18 10° W 15:52:09 88° S 16:08:57 10° E daylight
19 Sep - 17:49:09 10° W 18:08:35 74° SSW 18:21:38 10° ESE daylight
19 Sep - 20:07:29 10° W 20:21:47 36° SW 20:31:07 10° SSE daylight
20 Sep - 09:50:32 10° S 10:00:08 23° SE 10:12:27 10° E visible
20 Sep - 11:58:08 10° SW 12:13:00 57° SSE 12:32:02 10° ENE visible
20 Sep - 14:10:44 10° WSW 14:29:10 84° SSE 14:47:58 10° E daylight
20 Sep - 16:26:22 10° W 16:46:28 84° S 17:02:00 10° ESE daylight
20 Sep - 18:43:41 10° WNW 19:01:41 56° SSW 19:13:26 10° SE daylight
20 Sep - 21:04:06 10° W 21:13:16 19° SW 21:20:08 10° S daylight
